Regional Weather Roundup
Issued by NWS

Home | Current Version | Previous Version | Text Only | Print | Product List | Glossary Off
Versions: 1 2 3 4 5 6 7 8 9 10 11 12 13 14 15 16 17 18 19 20 21 22 23 24 25 26 27 28 29 30 31 32 33 34 35 36 37 38 39 40 41 42 43 44 45 46 47 48 49 50

000
ASUS43 KLMK 152310
RWRKY
KENTUCKY REGIONAL WEATHER ROUNDUP
NATIONAL WEATHER SERVICE LOUISVILLE KY
700 PM EDT MON SEP 15 2014

NOTE "FAIR" INDICATES FEW OR NO CLOUDS BELOW 12,000 FEET
WITH NO SIGNIFICANT WEATHER AND/OR OBSTRUCTIONS TO VISIBILITY.

KYZ001>023-026-027-061>063-070>075-160000-
WESTERN AND SOUTH CENTRAL KENTUCKY

CITY           SKY/WX    TMP DP  RH WIND       PRES   REMARKS
PADUCAH        PTSUNNY   76  61  59 W6        30.08R
HENDERSON      CLOUDY    75  55  50 SW6       30.07R
OWENSBORO      CLOUDY    74  58  57 S10       30.07F
HOPKINSVILLE   CLOUDY    72  64  75 S5        30.09F
BOWLING GREEN  CLOUDY    73  60  63 SE8       30.10S
GLASGOW        CLOUDY    71  59  65 S3        30.10F
$$

KYZ024-025-028>034-038-045-046-053-160000-
NORTH CENTRAL KENTUCKY

CITY           SKY/WX    TMP DP  RH WIND       PRES   REMARKS
LOUISVILLE/SDF CLOUDY    71  56  58 SE10      30.06F
LOUISVILLE/LOU CLOUDY    70  55  59 S6        30.07F
FORT KNOX      CLOUDY    70  59  67 E7        30.07F
$$

KYZ035>037-039>044-047>052-055>060-089>105-160000-
NORTHEAST KENTUCKY

CITY           SKY/WX    TMP DP  RH WIND       PRES   REMARKS
LEXINGTON      CLOUDY    71  52  50 E3        30.11F
COVINGTON      CLOUDY    60  53  77 S6        30.08R
FRANKFORT      CLOUDY    68  54  60 SE8       30.04F
$$

KYZ054-064>069-076>088-106>120-160000-
SOUTHEAST KENTUCKY

CITY           SKY/WX    TMP DP  RH WIND       PRES   REMARKS
JACKSON        CLOUDY    70  58  65 W3        30.14S
LONDON         CLOUDY    72  61  68 SW6       30.15S
SOMERSET       NOT AVBL
MIDDLESBORO    LGT RAIN  69  67  93 CALM      30.14F
MONTICELLO     CLOUDY    70  61  73 CALM      30.14F
$$



USA.gov is the U.S. government's official web portal to all federal, state and local government web resources and services.